Location: Luxembourg
(49.6117°N, 6.1300°E)
Time: 15:51:00
(UTC+01:00)

N. Korean satellite - Pass Details

Date: 28 January 2019
Orbit: 457 x 510 km, 97.2° (Epoch: 17 February)

Event Time Altitude Azimuth Distance (km) Brightness Sun altitude
Rises 05:41:36 0° 31° (NNE) 2,606 10.7 -24.5°
Reaches altitude 10° 05:44:49 10° 62° (ENE) 1,703 10.1 -24.0°
Maximum altitude 05:46:26 12° 88° (E) 1,543 10.1 -23.8°
Drops below altitude 10° 05:48:01 10° 114° (ESE) 1,683 10.2 -23.5°
Sets 05:51:09 0° 145° (SE) 2,542 10.7 -23.0°
